Tracking 18032 objects as of 27-March-2017
HD Live streaming from Space Station
objects crossing your sky now

SSU 2

Track SSU 2 now!
10-day predictions
SSU 2 is classified as:


NORAD ID: 8836
Int'l Code: 1976-038D
Perigee: 385.9 km
Apogee: 1,531.1 km
Inclination: 63.3 °
Period: 104.1 minutes
Semi major axis: 7329 km
RCS: Unknown
Launch date: April 30, 1976
Source: United States (US)
Launch site: AIR FORCE WESTERN TEST RANGE (AFWTR)
Your satellite tracking list
Your tracking list is empty





NASA's NSSDC Master Catalog

Two Line Element Set (TLE):
1 08836U 76038D   16345.20791714 0.00002000  00000-0  13557-3 0    08
2 08836  63.3005 105.8293 0781247 121.9201 238.0799 13.83538863    03
Source of the keplerian elements: McCants